Year,Month,Day,Hour,Minute,Value (Times are PST for temperature in C)
2010,09,24,00,00,10.80
2010,09,24,00,01,10.80
2010,09,24,00,02,10.80
2010,09,24,00,03,10.70
2010,09,24,00,04,10.70
2010,09,24,00,05,10.70
2010,09,24,00,06,10.70
2010,09,24,00,07,10.70
2010,09,24,00,08,10.70
2010,09,24,00,09,10.70
2010,09,24,00,10,10.70
2010,09,24,00,11,10.70
2010,09,24,00,12,10.60
2010,09,24,00,13,10.60
2010,09,24,00,14,10.60
2010,09,24,00,15,10.60
2010,09,24,00,16,10.60
2010,09,24,00,17,10.60
2010,09,24,00,18,10.60
2010,09,24,00,19,10.70
2010,09,24,00,20,10.70
2010,09,24,00,21,10.70
2010,09,24,00,22,10.70
2010,09,24,00,23,10.70
2010,09,24,00,24,10.70
2010,09,24,00,25,10.70
2010,09,24,00,26,10.60
2010,09,24,00,27,10.60
2010,09,24,00,28,10.60
2010,09,24,00,29,10.60
2010,09,24,00,30,10.60
2010,09,24,00,31,10.50
2010,09,24,00,32,10.50
2010,09,24,00,33,10.50
2010,09,24,00,34,10.50
2010,09,24,00,35,10.50
2010,09,24,00,36,10.50
2010,09,24,00,37,10.50
2010,09,24,00,38,10.50
2010,09,24,00,39,10.40
2010,09,24,00,40,10.40
2010,09,24,00,41,10.40
2010,09,24,00,42,10.40
2010,09,24,00,43,10.40
2010,09,24,00,44,10.40
2010,09,24,00,45,10.40
2010,09,24,00,46,10.40
2010,09,24,00,47,10.40
2010,09,24,00,48,10.40
2010,09,24,00,49,10.50
2010,09,24,00,50,10.40
2010,09,24,00,51,10.40
2010,09,24,00,52,10.50
2010,09,24,00,53,10.50
2010,09,24,00,54,10.50
2010,09,24,00,55,10.50
2010,09,24,00,56,10.50
2010,09,24,00,57,10.50
2010,09,24,00,58,10.50
2010,09,24,00,59,10.50
2010,09,24,01,00,10.50
2010,09,24,01,01,10.50
2010,09,24,01,02,10.50
2010,09,24,01,03,10.50
2010,09,24,01,04,10.50
2010,09,24,01,05,10.50
2010,09,24,01,06,10.40
2010,09,24,01,07,10.40
2010,09,24,01,08,10.40
2010,09,24,01,09,10.40
2010,09,24,01,10,10.40
2010,09,24,01,11,10.40
2010,09,24,01,12,10.40
2010,09,24,01,13,10.40
2010,09,24,01,14,10.40
2010,09,24,01,15,10.40
2010,09,24,01,16,10.40
2010,09,24,01,17,10.40
2010,09,24,01,18,10.40
2010,09,24,01,19,10.40
2010,09,24,01,20,10.40
2010,09,24,01,21,10.40
2010,09,24,01,22,10.40
2010,09,24,01,23,10.40
2010,09,24,01,24,10.40
2010,09,24,01,25,10.40
2010,09,24,01,26,10.40
2010,09,24,01,27,10.40
2010,09,24,01,28,10.40
2010,09,24,01,29,10.40
2010,09,24,01,30,10.40
2010,09,24,01,31,10.30
2010,09,24,01,32,10.30
2010,09,24,01,33,10.30
2010,09,24,01,34,10.30
2010,09,24,01,35,10.30
2010,09,24,01,36,10.30
2010,09,24,01,37,10.30
2010,09,24,01,38,10.30
2010,09,24,01,39,10.30
2010,09,24,01,40,10.20
2010,09,24,01,41,10.20
2010,09,24,01,42,10.20
2010,09,24,01,43,10.20
2010,09,24,01,44,10.20
2010,09,24,01,45,10.20
2010,09,24,01,46,10.20
2010,09,24,01,47,10.20
2010,09,24,01,48,10.20
2010,09,24,01,49,10.20
2010,09,24,01,50,10.10
2010,09,24,01,51,10.10
2010,09,24,01,52,10.10
2010,09,24,01,53,10.00
2010,09,24,01,54,10.00
2010,09,24,01,55,10.00
2010,09,24,01,56,10.00
2010,09,24,01,57,10.00
2010,09,24,01,58,9.90
2010,09,24,01,59,9.90
2010,09,24,02,00,9.90
2010,09,24,02,01,9.90
2010,09,24,02,02,9.90
2010,09,24,02,03,9.90
2010,09,24,02,04,9.90
2010,09,24,02,05,9.90
2010,09,24,02,06,9.80
2010,09,24,02,07,9.80
2010,09,24,02,08,9.80
2010,09,24,02,09,9.80
2010,09,24,02,10,9.80
2010,09,24,02,11,9.70
2010,09,24,02,12,9.70
2010,09,24,02,13,9.70
2010,09,24,02,14,9.70
2010,09,24,02,15,9.70
2010,09,24,02,16,9.60
2010,09,24,02,17,9.60
2010,09,24,02,18,9.60
2010,09,24,02,19,9.60
2010,09,24,02,20,9.60
2010,09,24,02,21,9.60
2010,09,24,02,22,9.60
2010,09,24,02,23,9.60
2010,09,24,02,24,9.60
2010,09,24,02,25,9.60
2010,09,24,02,26,9.50
2010,09,24,02,27,9.50
2010,09,24,02,28,9.40
2010,09,24,02,29,9.40
2010,09,24,02,30,9.40
2010,09,24,02,31,9.40
2010,09,24,02,32,9.30
2010,09,24,02,33,9.30
2010,09,24,02,34,9.30
2010,09,24,02,35,9.30
2010,09,24,02,36,9.30
2010,09,24,02,37,9.30
2010,09,24,02,38,9.30
2010,09,24,02,39,9.30
2010,09,24,02,40,9.30
2010,09,24,02,41,9.30
2010,09,24,02,42,9.30
2010,09,24,02,43,9.30
2010,09,24,02,44,9.30
2010,09,24,02,45,9.30
2010,09,24,02,46,9.40
2010,09,24,02,47,9.40
2010,09,24,02,48,9.40
2010,09,24,02,49,9.40
2010,09,24,02,50,9.40
2010,09,24,02,51,9.40
2010,09,24,02,52,9.40
2010,09,24,02,53,9.40
2010,09,24,02,54,9.40
2010,09,24,02,55,9.30
2010,09,24,02,56,9.30
2010,09,24,02,57,9.30
2010,09,24,02,58,9.30
2010,09,24,02,59,9.30
2010,09,24,03,00,9.30
2010,09,24,03,01,9.30
2010,09,24,03,02,9.30
2010,09,24,03,03,9.30
2010,09,24,03,06,9.20
2010,09,24,03,07,9.20
2010,09,24,03,08,9.20
2010,09,24,03,09,9.20
2010,09,24,03,10,9.20
2010,09,24,03,11,9.20
2010,09,24,03,12,9.10
2010,09,24,03,13,9.10
2010,09,24,03,14,9.10
2010,09,24,03,15,9.10
2010,09,24,03,16,9.10
2010,09,24,03,17,9.10
2010,09,24,03,18,9.10
2010,09,24,03,19,9.10
2010,09,24,03,20,9.10
2010,09,24,03,21,9.10
2010,09,24,03,22,9.10
2010,09,24,03,23,9.10
2010,09,24,03,24,9.10
2010,09,24,03,25,9.10
2010,09,24,03,26,9.10
2010,09,24,03,27,9.10
2010,09,24,03,28,9.20
2010,09,24,03,29,9.20
2010,09,24,03,30,9.20
2010,09,24,03,31,9.20
2010,09,24,03,32,9.20
2010,09,24,03,33,9.20
2010,09,24,03,34,9.20
2010,09,24,03,35,9.20
2010,09,24,03,36,9.20
2010,09,24,03,37,9.20
2010,09,24,03,38,9.20
2010,09,24,03,39,9.20
2010,09,24,03,40,9.10
2010,09,24,03,41,9.10
2010,09,24,03,42,9.10
2010,09,24,03,43,9.10
2010,09,24,03,44,9.10
2010,09,24,03,45,9.10
2010,09,24,03,46,9.10
2010,09,24,03,47,9.10
2010,09,24,03,48,9.00
2010,09,24,03,49,9.00
2010,09,24,03,50,9.00
2010,09,24,03,51,9.00
2010,09,24,03,52,9.00
2010,09,24,03,53,9.00
2010,09,24,03,54,9.00
2010,09,24,03,55,9.00
2010,09,24,03,56,8.90
2010,09,24,03,57,8.90
2010,09,24,03,58,8.90
2010,09,24,03,59,8.90
2010,09,24,04,00,8.90
2010,09,24,04,01,8.80
2010,09,24,04,02,8.80
2010,09,24,04,03,8.80
2010,09,24,04,04,8.80
2010,09,24,04,05,8.80
2010,09,24,04,06,8.80
2010,09,24,04,07,8.80
2010,09,24,04,08,8.80
2010,09,24,04,09,8.80
2010,09,24,04,10,8.80
2010,09,24,04,11,8.80
2010,09,24,04,12,8.80
2010,09,24,04,13,8.80
2010,09,24,04,14,8.80
2010,09,24,04,15,8.80
2010,09,24,04,16,8.80
2010,09,24,04,17,8.80
2010,09,24,04,18,8.90
2010,09,24,04,19,8.90
2010,09,24,04,20,8.90
2010,09,24,04,21,8.90
2010,09,24,04,22,8.90
2010,09,24,04,23,8.90
2010,09,24,04,24,8.90
2010,09,24,04,25,8.90
2010,09,24,04,26,8.90
2010,09,24,04,27,8.90
2010,09,24,04,28,8.90
2010,09,24,04,29,8.90
2010,09,24,04,30,8.90
2010,09,24,04,31,8.90
2010,09,24,04,32,8.90
2010,09,24,04,33,8.90
2010,09,24,04,34,8.90
2010,09,24,04,35,8.90
2010,09,24,04,36,8.90
2010,09,24,04,37,8.90
2010,09,24,04,38,9.00
2010,09,24,04,39,8.90
2010,09,24,04,40,8.90
2010,09,24,04,41,8.90
2010,09,24,04,42,8.90
2010,09,24,04,43,8.90
2010,09,24,04,44,8.90
2010,09,24,04,45,8.90
2010,09,24,04,46,8.90
2010,09,24,04,47,8.90
2010,09,24,04,48,8.90
2010,09,24,04,49,8.90
2010,09,24,04,50,8.90
2010,09,24,04,51,8.90
2010,09,24,04,52,8.90
2010,09,24,04,53,8.90
2010,09,24,04,54,8.90
2010,09,24,04,55,8.90
2010,09,24,04,56,8.90
2010,09,24,04,57,8.90
2010,09,24,04,58,8.90
2010,09,24,04,59,8.90
2010,09,24,05,00,8.90
2010,09,24,05,01,8.90
2010,09,24,05,02,8.90
2010,09,24,05,03,8.90
2010,09,24,05,04,8.90
2010,09,24,05,05,8.90
2010,09,24,05,06,9.00
2010,09,24,05,07,9.00
2010,09,24,05,08,9.00
2010,09,24,05,09,9.00
2010,09,24,05,10,9.00
2010,09,24,05,11,9.00
2010,09,24,05,12,9.00
2010,09,24,05,13,9.00
2010,09,24,05,14,9.00
2010,09,24,05,15,9.00
2010,09,24,05,16,9.10
2010,09,24,05,17,9.10
2010,09,24,05,18,9.10
2010,09,24,05,19,9.10
2010,09,24,05,20,9.20
2010,09,24,05,21,9.20
2010,09,24,05,22,9.20
2010,09,24,05,23,9.30
2010,09,24,05,24,9.30
2010,09,24,05,25,9.40
2010,09,24,05,26,9.40
2010,09,24,05,27,9.40
2010,09,24,05,28,9.50
2010,09,24,05,29,9.60
2010,09,24,05,30,9.60
2010,09,24,05,31,9.60
2010,09,24,05,32,9.60
2010,09,24,05,33,9.70
2010,09,24,05,34,9.70
2010,09,24,05,35,9.70
2010,09,24,05,36,9.80
2010,09,24,05,37,9.80
2010,09,24,05,38,9.80
2010,09,24,05,39,9.90
2010,09,24,05,40,9.90
2010,09,24,05,41,9.90
2010,09,24,05,42,9.90
2010,09,24,05,43,9.90
2010,09,24,05,44,10.00
2010,09,24,05,45,10.00
2010,09,24,05,46,10.10
2010,09,24,05,47,10.10
2010,09,24,05,48,10.20
2010,09,24,05,49,10.20
2010,09,24,05,50,10.20
2010,09,24,05,51,10.20
2010,09,24,05,52,10.30
2010,09,24,05,53,10.30
2010,09,24,05,54,10.30
2010,09,24,05,55,10.30
2010,09,24,05,56,10.40
2010,09,24,05,57,10.40
2010,09,24,05,58,10.40
2010,09,24,05,59,10.40
2010,09,24,06,00,10.40
2010,09,24,06,01,10.40
2010,09,24,06,02,10.40
2010,09,24,06,03,10.40
2010,09,24,06,04,10.40
2010,09,24,06,05,10.40
2010,09,24,06,06,10.40
2010,09,24,06,07,10.40
2010,09,24,06,08,10.40
2010,09,24,06,09,10.40
2010,09,24,06,10,10.40
2010,09,24,06,11,10.40
2010,09,24,06,12,10.40
2010,09,24,06,13,10.40
2010,09,24,06,14,10.40
2010,09,24,06,15,10.40
2010,09,24,06,16,10.40
2010,09,24,06,17,10.40
2010,09,24,06,18,10.40
2010,09,24,06,19,10.50
2010,09,24,06,20,10.50
2010,09,24,06,21,10.60
2010,09,24,06,22,10.60
2010,09,24,06,23,10.60
2010,09,24,06,24,10.60
2010,09,24,06,25,10.60
2010,09,24,06,26,10.60
2010,09,24,06,27,10.60
2010,09,24,06,28,10.60
2010,09,24,06,29,10.60
2010,09,24,06,30,10.60
2010,09,24,06,31,10.60
2010,09,24,06,32,10.60
2010,09,24,06,33,10.70
2010,09,24,06,34,10.70
2010,09,24,06,35,10.70
2010,09,24,06,36,10.70
2010,09,24,06,37,10.70
2010,09,24,06,38,10.70
2010,09,24,06,39,10.70
2010,09,24,06,40,10.70
2010,09,24,06,41,10.70
2010,09,24,06,42,10.70
2010,09,24,06,43,10.70
2010,09,24,06,44,10.80
2010,09,24,06,45,10.80
2010,09,24,06,46,10.80
2010,09,24,06,47,10.80
2010,09,24,06,48,10.80
2010,09,24,06,49,10.80
2010,09,24,06,50,10.80
2010,09,24,06,51,10.80
2010,09,24,06,52,10.80
2010,09,24,06,53,10.80
2010,09,24,06,54,10.80
2010,09,24,06,55,10.80
2010,09,24,06,56,10.90
2010,09,24,06,57,10.90
2010,09,24,06,58,10.90
2010,09,24,06,59,10.90
2010,09,24,07,00,10.90
2010,09,24,07,01,10.90
2010,09,24,07,02,10.90
2010,09,24,07,03,10.90
2010,09,24,07,04,10.90
2010,09,24,07,05,10.90
2010,09,24,07,06,10.90
2010,09,24,07,07,10.90
2010,09,24,07,08,10.90
2010,09,24,07,09,10.90
2010,09,24,07,10,10.90
2010,09,24,07,11,10.90
2010,09,24,07,12,10.90
2010,09,24,07,13,10.90
2010,09,24,07,14,10.90
2010,09,24,07,15,10.90
2010,09,24,07,16,10.90
2010,09,24,07,17,10.90
2010,09,24,07,18,10.90
2010,09,24,07,19,10.90
2010,09,24,07,20,10.90
2010,09,24,07,21,10.90
2010,09,24,07,22,10.90
2010,09,24,07,23,11.00
2010,09,24,07,24,11.00
2010,09,24,07,25,11.00
2010,09,24,07,26,11.00
2010,09,24,07,27,11.00
2010,09,24,07,28,11.00
2010,09,24,07,29,11.00
2010,09,24,07,30,11.00
2010,09,24,07,31,11.00
2010,09,24,07,32,11.10
2010,09,24,07,33,11.10
2010,09,24,07,34,11.10
2010,09,24,07,35,11.10
2010,09,24,07,36,11.10
2010,09,24,07,37,11.10
2010,09,24,07,38,11.10
2010,09,24,07,39,11.10
2010,09,24,07,40,11.10
2010,09,24,07,41,11.10
2010,09,24,07,42,11.10
2010,09,24,07,43,11.10
2010,09,24,07,44,11.10
2010,09,24,07,45,11.10
2010,09,24,07,46,11.10
2010,09,24,07,47,11.10
2010,09,24,07,48,11.10
2010,09,24,07,49,11.20
2010,09,24,07,50,11.20
2010,09,24,07,51,11.20
2010,09,24,07,52,11.20
2010,09,24,07,53,11.20
2010,09,24,07,54,11.20
2010,09,24,07,55,11.20
2010,09,24,07,56,11.20
2010,09,24,07,57,11.20
2010,09,24,07,58,11.20
2010,09,24,07,59,11.20
2010,09,24,08,00,11.20
2010,09,24,08,01,11.20
2010,09,24,08,02,11.20
2010,09,24,08,03,11.20
2010,09,24,08,04,11.20
2010,09,24,08,05,11.20
2010,09,24,08,06,11.20
2010,09,24,08,07,11.20
2010,09,24,08,08,11.20
2010,09,24,08,09,11.20
2010,09,24,08,10,11.20
2010,09,24,08,11,11.20
2010,09,24,08,12,11.20
2010,09,24,08,13,11.20
2010,09,24,08,14,11.20
2010,09,24,08,15,11.20
2010,09,24,08,16,11.20
2010,09,24,08,17,11.20
2010,09,24,08,18,11.20
2010,09,24,08,19,11.20
2010,09,24,08,20,11.20
2010,09,24,08,21,11.20
2010,09,24,08,22,11.20
2010,09,24,08,23,11.20
2010,09,24,08,24,11.20
2010,09,24,08,25,11.20
2010,09,24,08,26,11.20
2010,09,24,08,27,11.20
2010,09,24,08,28,11.20
2010,09,24,08,29,11.20
2010,09,24,08,30,11.20
2010,09,24,08,31,11.20
2010,09,24,08,32,11.20
2010,09,24,08,33,11.20
2010,09,24,08,34,11.20
2010,09,24,08,35,11.20
2010,09,24,08,36,11.20
2010,09,24,08,37,11.20
2010,09,24,08,38,11.20
2010,09,24,08,39,11.20
2010,09,24,08,40,11.20
2010,09,24,08,41,11.20
2010,09,24,08,42,11.20
2010,09,24,08,43,11.20
2010,09,24,08,44,11.20
2010,09,24,08,45,11.20
2010,09,24,08,46,11.20
2010,09,24,08,47,11.20
2010,09,24,08,48,11.30
2010,09,24,08,49,11.30
2010,09,24,08,50,11.30
2010,09,24,08,51,11.30
2010,09,24,08,52,11.30
2010,09,24,08,53,11.30
2010,09,24,08,54,11.30
2010,09,24,08,55,11.30
2010,09,24,08,56,11.30
2010,09,24,08,57,11.40
2010,09,24,08,58,11.40
2010,09,24,08,59,11.40
2010,09,24,09,00,11.40
2010,09,24,09,01,11.40
2010,09,24,09,02,11.40
2010,09,24,09,03,11.40
2010,09,24,09,04,11.40
2010,09,24,09,05,11.40
2010,09,24,09,06,11.40
2010,09,24,09,07,11.40
2010,09,24,09,08,11.40
2010,09,24,09,09,11.40
2010,09,24,09,10,11.40
2010,09,24,09,11,11.40
2010,09,24,09,12,11.50
2010,09,24,09,13,11.50
2010,09,24,09,14,11.50
2010,09,24,09,15,11.50
2010,09,24,09,16,11.50
2010,09,24,09,17,11.50
2010,09,24,09,18,11.50
2010,09,24,09,19,11.50
2010,09,24,09,20,11.50
2010,09,24,09,21,11.60
2010,09,24,09,22,11.60
2010,09,24,09,23,11.60
2010,09,24,09,24,11.60
2010,09,24,09,25,11.60
2010,09,24,09,26,11.60
2010,09,24,09,27,11.60
2010,09,24,09,28,11.60
2010,09,24,09,29,11.60
2010,09,24,09,30,11.60
2010,09,24,09,31,11.60
2010,09,24,09,32,11.60
2010,09,24,09,33,11.60
2010,09,24,09,34,11.60
2010,09,24,09,35,11.70
2010,09,24,09,36,11.70
2010,09,24,09,37,11.70
2010,09,24,09,38,11.70
2010,09,24,09,39,11.70
2010,09,24,09,40,11.70
2010,09,24,09,41,11.70
2010,09,24,09,42,11.70
2010,09,24,09,43,11.70
2010,09,24,09,44,11.70
2010,09,24,09,45,11.70
2010,09,24,09,46,11.70
2010,09,24,09,47,11.80
2010,09,24,09,48,11.80
2010,09,24,09,49,11.80
2010,09,24,09,50,11.80
2010,09,24,09,51,11.80
2010,09,24,09,52,11.80
2010,09,24,09,53,11.80
2010,09,24,09,54,11.80
2010,09,24,09,55,11.80
2010,09,24,09,56,11.80
2010,09,24,09,57,11.80
2010,09,24,09,58,11.80
2010,09,24,09,59,11.90
2010,09,24,10,00,11.90
2010,09,24,10,01,11.90
2010,09,24,10,02,11.90
2010,09,24,10,03,11.90
2010,09,24,10,04,11.90
2010,09,24,10,05,11.90
2010,09,24,10,06,11.90
2010,09,24,10,07,11.90
2010,09,24,10,08,11.90
2010,09,24,10,09,11.90
2010,09,24,10,10,11.90
2010,09,24,10,11,11.90
2010,09,24,10,12,11.90
2010,09,24,10,13,11.90
2010,09,24,10,14,11.90
2010,09,24,10,15,11.90
2010,09,24,10,16,12.00
2010,09,24,10,17,12.00
2010,09,24,10,18,12.00
2010,09,24,10,19,12.00
2010,09,24,10,20,12.00
2010,09,24,10,21,12.00
2010,09,24,10,22,12.10
2010,09,24,10,23,12.10
2010,09,24,10,24,12.10
2010,09,24,10,25,12.10
2010,09,24,10,26,12.10
2010,09,24,10,27,12.10
2010,09,24,10,28,12.10
2010,09,24,10,29,12.10
2010,09,24,10,30,12.10
2010,09,24,10,31,12.10
2010,09,24,10,32,12.10
2010,09,24,10,33,12.10
2010,09,24,10,34,12.10
2010,09,24,10,35,12.10
2010,09,24,10,36,12.10
2010,09,24,10,37,12.10
2010,09,24,10,38,12.10
2010,09,24,10,39,12.10
2010,09,24,10,40,12.10
2010,09,24,10,41,12.10
2010,09,24,10,42,12.00
2010,09,24,10,43,12.10
2010,09,24,10,44,12.10
2010,09,24,10,45,12.10
2010,09,24,10,46,12.10
2010,09,24,10,47,12.10
2010,09,24,10,48,12.10
2010,09,24,10,49,12.10
2010,09,24,10,50,12.10
2010,09,24,10,51,12.10
2010,09,24,10,52,12.10
2010,09,24,10,53,12.10
2010,09,24,10,54,12.10
2010,09,24,10,55,12.10
2010,09,24,10,56,12.10
2010,09,24,10,57,12.10
2010,09,24,10,58,12.10
2010,09,24,10,59,12.10
2010,09,24,11,00,12.10
2010,09,24,11,01,12.10
2010,09,24,11,02,12.10
2010,09,24,11,03,12.10
2010,09,24,11,04,12.10
2010,09,24,11,05,12.10
2010,09,24,11,06,12.20
2010,09,24,11,07,12.20
2010,09,24,11,08,12.20
2010,09,24,11,09,12.20
2010,09,24,11,10,12.20
2010,09,24,11,11,12.20
2010,09,24,11,12,12.20
2010,09,24,11,13,12.20
2010,09,24,11,14,12.30
2010,09,24,11,15,12.30
2010,09,24,11,16,12.30
2010,09,24,11,17,12.30
2010,09,24,11,18,12.30
2010,09,24,11,19,12.30
2010,09,24,11,20,12.30
2010,09,24,11,21,12.30
2010,09,24,11,22,12.40
2010,09,24,11,23,12.40
2010,09,24,11,24,12.40
2010,09,24,11,25,12.40
2010,09,24,11,26,12.40
2010,09,24,11,27,12.40
2010,09,24,11,28,12.50
2010,09,24,11,29,12.50
2010,09,24,11,30,12.50
2010,09,24,11,31,12.50
2010,09,24,11,32,12.50
2010,09,24,11,33,12.50
2010,09,24,11,34,12.50
2010,09,24,11,35,12.50
2010,09,24,11,36,12.50
2010,09,24,11,37,12.40
2010,09,24,11,38,12.40
2010,09,24,11,39,12.50
2010,09,24,11,40,12.50
2010,09,24,11,41,12.40
2010,09,24,11,42,12.40
2010,09,24,11,43,12.40
2010,09,24,11,44,12.40
2010,09,24,11,45,12.50
2010,09,24,11,46,12.50
2010,09,24,11,47,12.50
2010,09,24,11,48,12.50
2010,09,24,11,49,12.50
2010,09,24,11,50,12.60
2010,09,24,11,51,12.50
2010,09,24,11,52,12.50
2010,09,24,11,53,12.60
2010,09,24,11,54,12.60
2010,09,24,11,55,12.60
2010,09,24,11,56,12.60
2010,09,24,11,57,12.60
2010,09,24,11,58,12.60
2010,09,24,11,59,12.60
2010,09,24,12,00,12.70
2010,09,24,12,01,12.70
2010,09,24,12,02,12.70
2010,09,24,12,03,12.70
2010,09,24,12,04,12.70
2010,09,24,12,05,12.70
2010,09,24,12,06,12.70
2010,09,24,12,07,12.70
2010,09,24,12,08,12.70
2010,09,24,12,09,12.70
2010,09,24,12,10,12.70
2010,09,24,12,11,12.70
2010,09,24,12,12,12.70
2010,09,24,12,13,12.70
2010,09,24,12,14,12.70
2010,09,24,12,15,12.70
2010,09,24,12,16,12.70
2010,09,24,12,17,12.70
2010,09,24,12,18,12.70
2010,09,24,12,19,12.70
2010,09,24,12,20,12.70
2010,09,24,12,21,12.70
2010,09,24,12,22,12.70
2010,09,24,12,23,12.70
2010,09,24,12,24,12.70
2010,09,24,12,25,12.70
2010,09,24,12,26,12.70
2010,09,24,12,27,12.70
2010,09,24,12,28,12.80
2010,09,24,12,29,12.80
2010,09,24,12,30,12.80
2010,09,24,12,31,12.80
2010,09,24,12,32,12.80
2010,09,24,12,33,12.80
2010,09,24,12,34,12.80
2010,09,24,12,35,12.80
2010,09,24,12,36,12.90
2010,09,24,12,37,12.90
2010,09,24,12,38,12.90
2010,09,24,12,39,12.90
2010,09,24,12,40,12.90
2010,09,24,12,41,12.90
2010,09,24,12,42,12.90
2010,09,24,12,43,13.00
2010,09,24,12,44,13.00
2010,09,24,12,45,13.00
2010,09,24,12,46,13.00
2010,09,24,12,47,13.00
2010,09,24,12,48,13.00
2010,09,24,12,49,12.90
2010,09,24,12,50,13.00
2010,09,24,12,51,13.00
2010,09,24,12,52,13.00
2010,09,24,12,53,13.00
2010,09,24,12,54,13.00
2010,09,24,12,55,13.00
2010,09,24,12,56,13.00
2010,09,24,12,57,13.00
2010,09,24,12,58,13.00
2010,09,24,12,59,12.90
2010,09,24,13,00,12.90
2010,09,24,13,01,12.90
2010,09,24,13,02,12.90
2010,09,24,13,03,12.90
2010,09,24,13,04,12.90
2010,09,24,13,05,12.90
2010,09,24,13,06,12.90
2010,09,24,13,07,12.90
2010,09,24,13,08,12.90
2010,09,24,13,09,12.90
2010,09,24,13,10,12.90
2010,09,24,13,11,13.00
2010,09,24,13,12,13.00
2010,09,24,13,13,13.00
2010,09,24,13,14,13.00
2010,09,24,13,15,13.00
2010,09,24,13,16,13.00
2010,09,24,13,17,13.00
2010,09,24,13,18,13.10
2010,09,24,13,19,13.10
2010,09,24,13,20,13.10
2010,09,24,13,21,13.10
2010,09,24,13,22,13.10
2010,09,24,13,23,13.10
2010,09,24,13,24,13.10
2010,09,24,13,25,13.10
2010,09,24,13,26,13.10
2010,09,24,13,27,13.10
2010,09,24,13,28,13.10
2010,09,24,13,29,13.10
2010,09,24,13,30,13.10
2010,09,24,13,31,13.10
2010,09,24,13,32,13.10
2010,09,24,13,33,13.10
2010,09,24,13,34,13.10
2010,09,24,13,35,13.10
2010,09,24,13,36,13.10
2010,09,24,13,37,13.10
2010,09,24,13,38,13.00
2010,09,24,13,39,13.10
2010,09,24,13,40,13.00
2010,09,24,13,41,13.00
2010,09,24,13,42,13.00
2010,09,24,13,43,13.10
2010,09,24,13,44,13.10
2010,09,24,13,45,13.10
2010,09,24,13,46,13.10
2010,09,24,13,47,13.10
2010,09,24,13,48,13.10
2010,09,24,13,49,13.10
2010,09,24,13,50,13.10
2010,09,24,13,51,13.10
2010,09,24,13,52,13.10
2010,09,24,13,53,13.10
2010,09,24,13,54,13.10
2010,09,24,13,55,13.10
2010,09,24,13,56,13.20
2010,09,24,13,57,13.20
2010,09,24,13,58,13.10
2010,09,24,13,59,13.10
2010,09,24,14,00,13.10
2010,09,24,14,01,13.10
2010,09,24,14,02,13.10
2010,09,24,14,03,13.00
2010,09,24,14,04,12.90
2010,09,24,14,05,12.90
2010,09,24,14,06,12.90
2010,09,24,14,07,12.90
2010,09,24,14,08,12.90
2010,09,24,14,09,12.80
2010,09,24,14,10,12.80
2010,09,24,14,11,12.80
2010,09,24,14,12,12.90
2010,09,24,14,13,12.90
2010,09,24,14,14,12.80
2010,09,24,14,15,12.80
2010,09,24,14,16,12.80
2010,09,24,14,17,12.80
2010,09,24,14,18,12.80
2010,09,24,14,19,12.80
2010,09,24,14,20,12.80
2010,09,24,14,21,12.80
2010,09,24,14,22,12.80
2010,09,24,14,23,12.80
2010,09,24,14,24,12.80
2010,09,24,14,25,12.80
2010,09,24,14,26,12.70
2010,09,24,14,27,12.70
2010,09,24,14,28,12.70
2010,09,24,14,29,12.70
2010,09,24,14,30,12.70
2010,09,24,14,31,12.70
2010,09,24,14,32,12.70
2010,09,24,14,33,12.70
2010,09,24,14,34,12.70
2010,09,24,14,35,12.70
2010,09,24,14,36,12.70
2010,09,24,14,37,12.70
2010,09,24,14,38,12.70
2010,09,24,14,39,12.70
2010,09,24,14,40,12.70
2010,09,24,14,41,12.70
2010,09,24,14,42,12.70
2010,09,24,14,43,12.70
2010,09,24,14,44,12.70
2010,09,24,14,45,12.70
2010,09,24,14,46,12.70
2010,09,24,14,47,12.80
2010,09,24,14,48,12.70
2010,09,24,14,49,12.70
2010,09,24,14,50,12.70
2010,09,24,14,51,12.80
2010,09,24,14,52,12.80
2010,09,24,14,53,12.70
2010,09,24,14,54,12.70
2010,09,24,14,55,12.70
2010,09,24,14,56,12.80
2010,09,24,14,57,12.80
2010,09,24,14,58,12.70
2010,09,24,14,59,12.80
2010,09,24,15,00,12.80
2010,09,24,15,01,12.80
2010,09,24,15,02,12.80
2010,09,24,15,03,12.80
2010,09,24,15,04,12.80
2010,09,24,15,05,12.80
2010,09,24,15,06,12.80
2010,09,24,15,07,12.80
2010,09,24,15,08,12.80
2010,09,24,15,09,12.80
2010,09,24,15,10,12.80
2010,09,24,15,11,12.80
2010,09,24,15,12,12.80
2010,09,24,15,13,12.80
2010,09,24,15,14,12.80
2010,09,24,15,15,12.80
2010,09,24,15,16,12.80
2010,09,24,15,17,12.70
2010,09,24,15,18,12.70
2010,09,24,15,19,12.70
2010,09,24,15,20,12.70
2010,09,24,15,21,12.70
2010,09,24,15,22,12.70
2010,09,24,15,23,12.80
2010,09,24,15,24,12.80
2010,09,24,15,25,12.80
2010,09,24,15,26,12.80
2010,09,24,15,27,12.80
2010,09,24,15,28,12.80
2010,09,24,15,29,12.80
2010,09,24,15,30,12.80
2010,09,24,15,31,12.70
2010,09,24,15,32,12.70
2010,09,24,15,33,12.70
2010,09,24,15,34,12.70
2010,09,24,15,35,12.80
2010,09,24,15,36,12.80
2010,09,24,15,37,12.80
2010,09,24,15,38,12.80
2010,09,24,15,39,12.80
2010,09,24,15,40,12.80
2010,09,24,15,41,12.80
2010,09,24,15,42,12.80
2010,09,24,15,43,12.80
2010,09,24,15,44,12.80
2010,09,24,15,45,12.90
2010,09,24,15,46,12.90
2010,09,24,15,47,12.90
2010,09,24,15,48,12.90
2010,09,24,15,49,12.90
2010,09,24,15,50,12.90
2010,09,24,15,51,12.90
2010,09,24,15,52,13.00
2010,09,24,15,53,13.00
2010,09,24,15,54,13.00
2010,09,24,15,55,13.10
2010,09,24,15,56,13.10
2010,09,24,15,57,13.10
2010,09,24,15,58,13.10
2010,09,24,15,59,13.10
2010,09,24,16,00,13.10
2010,09,24,16,01,13.10
2010,09,24,16,02,13.10
2010,09,24,16,03,13.10
2010,09,24,16,04,13.10
2010,09,24,16,05,13.10
2010,09,24,16,06,13.10
2010,09,24,16,07,13.10
2010,09,24,16,08,13.10
2010,09,24,16,09,13.10
2010,09,24,16,10,13.10
2010,09,24,16,11,13.10
2010,09,24,16,12,13.10
2010,09,24,16,13,13.10
2010,09,24,16,14,13.10
2010,09,24,16,15,13.10
2010,09,24,16,16,13.10
2010,09,24,16,17,13.10
2010,09,24,16,18,13.10
2010,09,24,16,19,13.20
2010,09,24,16,20,13.20
2010,09,24,16,21,13.20
2010,09,24,16,22,13.20
2010,09,24,16,23,13.10
2010,09,24,16,24,13.10
2010,09,24,16,25,13.10
2010,09,24,16,26,13.20
2010,09,24,16,27,13.10
2010,09,24,16,28,13.20
2010,09,24,16,29,13.20
2010,09,24,16,30,13.20
2010,09,24,16,31,13.20
2010,09,24,16,32,13.20
2010,09,24,16,33,13.20
2010,09,24,16,34,13.20
2010,09,24,16,35,13.20
2010,09,24,16,36,13.20
2010,09,24,16,37,13.20
2010,09,24,16,38,13.20
2010,09,24,16,39,13.20
2010,09,24,16,40,13.20
2010,09,24,16,41,13.20
2010,09,24,16,42,13.20
2010,09,24,16,43,13.20
2010,09,24,16,44,13.20
2010,09,24,16,45,13.20
2010,09,24,16,46,13.20
2010,09,24,16,47,13.20
2010,09,24,16,48,13.20
2010,09,24,16,49,13.30
2010,09,24,16,50,13.30
2010,09,24,16,51,13.20
2010,09,24,16,52,13.20
2010,09,24,16,53,13.20
2010,09,24,16,54,13.20
2010,09,24,16,55,13.20
2010,09,24,16,56,13.20
2010,09,24,16,57,13.20
2010,09,24,16,58,13.20
2010,09,24,16,59,13.20
2010,09,24,17,00,13.20
2010,09,24,17,01,13.20
2010,09,24,17,02,13.20
2010,09,24,17,03,13.20
2010,09,24,17,04,13.20
2010,09,24,17,05,13.20
2010,09,24,17,06,13.20
2010,09,24,17,07,13.20
2010,09,24,17,08,13.20
2010,09,24,17,09,13.20
2010,09,24,17,10,13.20
2010,09,24,17,11,13.20
2010,09,24,17,12,13.20
2010,09,24,17,13,13.20
2010,09,24,17,14,13.20
2010,09,24,17,15,13.20
2010,09,24,17,16,13.20
2010,09,24,17,17,13.20
2010,09,24,17,18,13.20
2010,09,24,17,19,13.20
2010,09,24,17,20,13.20
2010,09,24,17,21,13.20
2010,09,24,17,22,13.20
2010,09,24,17,23,13.20
2010,09,24,17,24,13.20
2010,09,24,17,25,13.20
2010,09,24,17,26,13.20
2010,09,24,17,27,13.20
2010,09,24,17,28,13.20
2010,09,24,17,29,13.20
2010,09,24,17,30,13.20
2010,09,24,17,31,13.20